Zurück zum Katalog

STARLINK-35410

AktivKommunikationVLEO
NORAD 66024·PAYLOAD·🇺🇸 United States

Gestartet Oct 16, 2025 von Cape Canaveral Space Force Station

Loading…

Nächste Überflüge (nächste 24 Stunden)

TLE

AktuellSource: CelesTrak SupGP

Epoche: Sep 14, 2026, 15:13 UTC

1 66024C 25232V   26257.63451389  .00028600  00000+0  84527-3 0  2574
2 66024  53.1583 302.8228 0001231  83.3644 240.0491 15.34366574    10

Verfolge STARLINK-35410 in Echtzeit mit AllMySat

Download on the App Store